TimeGMT,TemperatureF,Dew PointF,Humidity,Sea Level PressureIn,VisibilityMPH,Wind Direction,Wind SpeedMPH,Gust SpeedMPH,PrecipitationIn,Events,Conditions,WindDirDegrees,DateUTC
12:50 AM,51.8,44.6,76,29.50,6.2,SW,23.0,-,N/A,,Scattered Clouds,220,2012-12-31 00:50:00
1:50 AM,51.8,44.6,76,29.47,6.2,SW,21.9,33.4,N/A,,Scattered Clouds,230,2012-12-31 01:50:00
2:50 AM,52,45,70,29.49,22,SW,18.4,,,,Mostly Cloudy,220,2012-12-31 02:50:00
2:50 AM,51.8,44.6,76,29.47,6.2,SW,18.4,-,N/A,,Mostly Cloudy,220,2012-12-31 02:50:00
3:50 AM,51.8,44.6,76,29.44,6.2,SSW,19.6,32.2,N/A,,Overcast,200,2012-12-31 03:50:00
4:50 AM,51.8,44.6,76,29.42,6.2,SSW,20.7,33.4,N/A,,Mostly Cloudy,200,2012-12-31 04:50:00
5:50 AM,52,45,70,29.37,44,SSW,19.6,,,,Scattered Clouds,210,2012-12-31 05:50:00
5:50 AM,51.8,44.6,76,29.36,6.2,SSW,19.6,-,N/A,,Mostly Cloudy,210,2012-12-31 05:50:00
6:50 AM,53.6,44.6,72,29.33,6.2,SW,26.5,39.1,N/A,,Scattered Clouds,220,2012-12-31 06:50:00
7:50 AM,51.8,46.4,82,29.30,6.2,SW,28.8,42.6,N/A,,Partly Cloudy,220,2012-12-31 07:50:00
8:50 AM,52,47,76,29.32,19,SW,26.5,,,,Partly Cloudy,220,2012-12-31 08:50:00
8:50 AM,51.8,46.4,82,29.30,6.2,SW,26.5,-,N/A,,Scattered Clouds,220,2012-12-31 08:50:00
9:50 AM,51.8,46.4,82,29.30,6.2,SW,21.9,-,N/A,,Mostly Cloudy,220,2012-12-31 09:50:00
10:50 AM,51.8,46.4,82,29.30,6.2,SW,21.9,-,N/A,,Mostly Cloudy,220,2012-12-31 10:50:00
11:50 AM,52,48,80,29.28,31,SSW,17.3,,,,Partly Cloudy,210,2012-12-31 11:50:00
11:50 AM,51.8,48.2,88,29.27,6.2,SSW,17.3,-,N/A,,Scattered Clouds,210,2012-12-31 11:50:00
12:50 PM,51.8,48.2,88,29.27,6.2,WSW,15.0,-,N/A,,Scattered Clouds,240,2012-12-31 12:50:00
1:50 PM,48.2,42.8,82,29.27,6.2,West,15.0,32.2,N/A,,Mostly Cloudy,270,2012-12-31 13:50:00
2:50 PM,46.4,42.8,87,29.27,6.2,West,10.4,-,N/A,,Scattered Clouds,260,2012-12-31 14:50:00
3:50 PM,46.4,42.8,87,29.27,6.2,WSW,6.9,-,N/A,,Unknown,240,2012-12-31 15:50:00
4:50 PM,44.6,41.0,87,29.30,6.2,West,6.9,-,N/A,,Scattered Clouds,260,2012-12-31 16:50:00
5:50 PM,45,42,83,29.34,22,West,8.1,,,,Mostly Cloudy,260,2012-12-31 17:50:00
5:50 PM,44.6,41.0,87,29.33,6.2,West,8.1,-,N/A,,Mostly Cloudy,260,2012-12-31 17:50:00
6:50 PM,44.6,39.2,81,29.36,6.2,WSW,5.8,-,N/A,,Unknown,240,2012-12-31 18:50:00
7:50 PM,42.8,41.0,93,29.36,6.2,SW,4.6,-,N/A,,Partly Cloudy,220,2012-12-31 19:50:00
8:50 PM,42,40,91,29.39,18,WSW,5.8,,,,Mostly Cloudy,240,2012-12-31 20:50:00
8:50 PM,42.8,41.0,93,29.39,6.2,WSW,5.8,-,N/A,,Mostly Cloudy,240,2012-12-31 20:50:00
9:50 PM,42.8,39.2,87,29.39,6.2,West,11.5,-,N/A,,Scattered Clouds,270,2012-12-31 21:50:00
10:50 PM,41.0,37.4,87,29.39,6.2,West,8.1,-,N/A,,Unknown,270,2012-12-31 22:50:00
11:50 PM,41,36,77,29.43,25,SW,5.8,,,,Scattered Clouds,220,2012-12-31 23:50:00
11:50 PM,41.0,35.6,81,29.42,6.2,SW,5.8,-,N/A,,Partly Cloudy,220,2012-12-31 23:50:00